Location: Rioux
(40.7500°S, 175.7500°E)
Time: 09:50:38
(UTC+00:00)

DMSP B5D2-2 - Pass Details

Date: 12 June 2024
Orbit: 786 x 804 km, 98.3° (Epoch: 21 July)

Event Time Altitude Azimuth Distance (km) Brightness Sun altitude
Rises 17:06:29 0° 168° (SSE) 3,326 7.4 -27.9°
Reaches altitude 10° 17:08:50 10° 169° (S) 2,391 6.6 -27.5°
Enters shadow 17:13:42 74° 197° (SSW) 838 4.0 -26.6°
Exits shadow 17:17:46 21° 341° (NNW) 1,746 5.7 -25.8°
Drops below altitude 10° 17:19:23 10° 342° (NNW) 2,372 6.4 -25.5°
Sets 17:21:42 0° 342° (NNW) 3,296 7.2 -25.1°
